Regional Weather Roundup
Issued by NWS Newport/Morehead, NC

Current Version | Previous Version | Text Only | Print | Product List | Glossary Off
Versions: 1 2 3 4 5 6 7 8 9 10 11 12 13 14 15 16 17 18 19 20 21 22 23 24 25 26 27 28 29 30 31 32 33 34 35 36 37 38 39 40 41 42 43 44 45 46 47 48 49 50
000 ASUS42 KMHX 061624 RWRMHX WEATHER ROUNDUP FOR EASTERN NORTH CAROLINA NATIONAL WEATHER SERVICE NEWPORT/MOREHEAD CITY NC 1100 AM EST FRI MAR 06 2015 NOTE: "FAIR" INDICATES FEW OR NO CLOUDS BELOW 12,000 FEET WITH NO SIGNIFICANT WEATHER AND/OR OBSTRUCTIONS TO VISIBILITY NCZ015>017-031-032-045>047-102-103-061700- NORTH COAST CITY SKY/WX TMP DP RH WIND PRES REMARKS EDENTON SUNNY 31 18 58 NE10G22 30.52S ELIZABETH CITY SUNNY 29 16 58 N15 30.52F WCI 18 KITTY HAWK CLOUDY 28 22 76 N12G22 30.48S WCI 18 MANTEO CLOUDY 28 22 78 N18G26 30.50S WCI 15 $$ NCZ045>047-081-094-103-104-061700- CENTRAL COAST CITY SKY/WX TMP DP RH WIND PRES REMARKS FRISCO CLOUDY 31 24 75 N13G30 30.44S SWANQUARTER N/A N/A N/A N/A VRB9G22 30.44S $$ NCZ095-097-098-100-101-061700- SOUTHERN COAST CITY SKY/WX TMP DP RH WIND PRES REMARKS BEAUFORT CLOUDY 33 22 63 NE20G30 30.45F CEDAR ISLAND N/A 32 N/A N/A NW24G30 30.50S WCI 19 JACKSONVILLE CLOUDY 35 22 58 N15 30.47S PINEY ISLAND N/A N/A N/A N/A MISG 30.46S WILMINGTON CLOUDY 35 22 58 N15 30.46S $$ NCZ011>013-027>030-043-044-078>080-089-090>093-098-061700- COASTAL PLAIN CITY SKY/WX TMP DP RH WIND PRES REMARKS AHOSKIE SUNNY 27 14 58 N8 30.55S CLINTON SUNNY 33 15 49 NE9G17 30.51S ELIZABETHTOWN MOSUNNY 36 15 42 N5 30.48S GOLDSBORO SUNNY 30 21 70 N10G18 30.49F GREENVILLE SUNNY 32 18 55 N13G18 30.52S HAVELOCK CLOUDY 34 20 56 NE21 30.47F KENANSVILLE SUNNY 32 18 57 N9 30.51S KINSTON SUNNY 32 18 55 N15 30.51F NEW BERN MOSUNNY 33 20 58 N16 30.50S RICHLANDS SUNNY 34 19 55 N9G18 30.48S ROCKY MOUNT SUNNY 29 14 53 NE13G21 30.53F WCI 19 WASHINGTON SUNNY 30 20 65 N8 30.51F WHITEVILLE CLOUDY 35 14 41 N7 30.47S $$ AMZ130-135-150-152-154-156-158-170-250-252-270-ANZ085-086-088-633-658-670-061700- MARINE OBSERVATIONS STATION/POSITION TIME TEMP WIND PRES WAVE SWELL AIR SEA DIR/SP/G HT/PER HT/PER (UTC) (F) (DEG/KT/KT) (MB) (FT/S) (FT/S) CHESAPEAKE LIGHT 1600 22 10/ 19/ 21 1034.1 64 E VA BEACH 1550 35 51 360/ 21/ 27 1030.3 9/ 8 7/ 8 DUCK 1600 25 35 10/ 17/ 24 1031.9 2 E DUCK 1511 35 N/A 7/ 8 2/11 10 NE DUCK 1522 37 N/A 9/ 7 2/11 OREGON INLET 1600 30 38 350/ 17/ 26 1032.0 HATTERAS CG 1600 31 44 10/ 27/ 33 1030.9 CAPE LOOKOUT 1600 10/ 20/ 25 1030.7 BEAUFORT LAB 1600 32 47 20/ 18/ 26 1030.3 27 SE WRIGHTSVLE NOT AVBL 5 SE WRIGHTSVLE NOT AVBL 225 S CAPE HAT 1550 64 72 30/ 21/ 27 1022.8 9/ 9 5/ 9 41 SE CHARLESTON 1550 47 67 20/ 25/ 31 1027.3 9/ 8 $$

USA.gov is the U.S. government's official web portal to all federal, state and local government web resources and services.